Location: Newark
(48.4472°N, 1.4892°E)
Time: 07:54:06
(UTC+00:00)

Transit 4A - Pass Details

Date: 23 November 2019
Orbit: 870 x 975 km, 66.8° (Epoch: 13 December)

Event Time Altitude Azimuth Distance (km) Brightness Sun altitude
Exits shadow 04:12:27 26° 359° (N) 1,687 9.2 -29.5°
Maximum altitude 04:14:46 35° 40° (NE) 1,406 9.1 -29.1°
Drops below altitude 10° 04:20:03 10° 105° (ESE) 2,524 11.1 -28.2°
Sets 04:22:44 0° 115° (ESE) 3,454 11.9 -27.8°
